STARLINK-4439, 53498

Orbit data source: Space-Track

STARLINK-4439, 53498 is a payload satellite owned by SpaceX/Seattle (US) in SSO that was launched on Fri, 12 Aug 2022 UTC via an FALCON 9 launch vehicle from the Air Force Western Test Range (AFWTR). Payload-class satellites include a variety of spacecraft equipped with specific instruments for various scientific and technological missions. These include communications satellites like Starlink; space stations such as the ISS; scientific satellites like the Hubble; Earth observation satellites from companies like Planet Labs, Umbra, and HawkEye 360; GPS; miniature CubeSats for education and research; and military/defense satellites.

Loading next visibility...
Identifier
53498, 2022-099AK
Orbit
SSO
Country
Flag of USUS
Related business
Manufacturer
SpaceX/Seattle
Mission
Operational Commercial Communications
Bus & Motor
STARLINK, Unknown motor
Mass
300 kg wet, ~275 kg dry
Launch date (UTC)
2022-08-12 (3 years ago)
Launch vehicle
FALCON 9
Launch site
Air Force Western Test Range (AFWTR)
Object type
Payload
Rocket body
Debris
Shape & HBR
Box + 1 Pan, 4.4 m
Radar Cross Section
13.562 m², Large (>1 m²)

Expand to show TLE details & history
Last TLE update: 14 hours ago

TLE from 14 hours ago
0 STARLINK-4439
1 53498U 22099AK  25259.04870868 -.00000237  00000-0 -13892-4 0  9996
2 53498  97.6020  19.2491 0001663 210.4619 149.6509 15.01259898169783
Epoch: 2025-09-16T01:10Z
TLE epoch observation values (Epoch: 2025-09-16T01:10:08.429Z)
Latitude
-0.00006°
Longitude
6.46939°
Altitude
567.066 km
Speed
7.577 km/s
True Right ascension
01h 16m 59s
True Declination
0° 00' 00"
Sunlit
Object was in full shadow at epoch
Visualization orbit readout
Latitude
Unknown
Longitude
Unknown
Altitude
Unknown
Speed
Unknown
Apparent Right ascension
Unknown
Apparent Declination
Unknown
Sunlit
N/A
Visualization observer readout
Local Sidereal Time
08:12:43
Azimuth
Unknown
Elevation
Unknown
Doppler factor
Unknown
Orbital elements
Apogee altitude
561.163 km
Perigee altitude
558.856 km
Semi-major axis
6,938.146 km
Eccentricity
0.00017
Inclination
97.602°
RAAN
19.2491°
Arg. of periapsis
210.4619°
True anomaly
149.66053°
Mean anomaly
149.6509°
Eccentric anomaly
149.65571°
Mean motion
3.75559 °/min
Orbital period
95.86 mins
BSTAR
-0.000013892
Loading maneuver chart data...
Computing Atmospheric mass density...
Loading historical data...
Loading historical data...
Loading historical data...
Loading historical data...
Loading historical data...
Loading historical data...
Loading historical data...

Documentation

Showing up to 5 results
|